Terminal Aerodrome Forecast
Issued by NWS Omaha/Valley, NE

Home | Current Version | Previous Version | Graphics & Text | Print | Product List | Glossary On
Versions: 1 2 3 4 5 6 7 8 9 10 11 12 13 14 15 16 17 18 19 20 21 22 23 24 25 26 27 28 29 30 31 32 33 34 35 36 37 38 39 40 41 42 43 44
000
FTUS43 KOAX 290520
TAFOFK
TAF
KOFK 290520Z 2906/3006 04005KT P6SM SCT012
      TEMPO 2906/2908 BKN012
     FM290800 VRB03KT 4SM BR BKN012
      TEMPO 2909/2913 1/2SM FG BKN007
     FM291400 VRB06KT P6SM SKC=

USA.gov is the U.S. government's official web portal to all federal, state and local government web resources and services.